Flight Track Log - Related Links

Times and Time Zones

All times are in EDT time to prevent confusion due to time zone crossing. See the ASH2638 flight status page for this flight to view local times or setup timezone preferences in your user account.

Time Position Orientation Groundspeed Altitude Reporting Facility
EDT Latitude Longitude Course Direction KTS MPH feet Rate Location/Type
Thu 05:47:11 PM 33.4333 -112.0333 273° West 176 203 1,900  Level Phoenix TRACON
Thu 05:48:23 PM 33.4114 -112.1022 249° West 211 243 4,900 2,597 Climbing Albuquerque Center
Thu 05:49:25 PM 33.4058 -112.1731 265° West 218 251 7,700 2,661 Climbing Albuquerque Center
Thu 05:50:00 PM 33.4363 -112.4559 273° West  Level FlightAware Approximate
Thu 05:50:27 PM 33.4108 -112.2511 274° West 233 268 10,400  Level Albuquerque Center
Thu 05:51:00 PM 33.4410 -112.5698 273° West  Level FlightAware Approximate
Thu 05:51:29 PM 33.4192 -112.3519 276° West 260 299 12,500  Level Albuquerque Center
Thu 05:52:00 PM 33.4455 -112.6836 273° West  Level FlightAware Approximate
Thu 05:52:32 PM 33.4272 -112.4556 275° West 307 353 14,200  Level Albuquerque Center
Thu 05:53:33 PM 33.4350 -112.5681 275° West 335 386 16,300 2,049 Climbing Albuquerque Center
Thu 05:54:35 PM 33.4431 -112.6836 275° West 342 394 18,400 2,032 Climbing Albuquerque Center
Thu 05:55:37 PM 33.4525 -112.8008 276° West 348 400 20,500 1,984 Climbing Albuquerque Center
Thu 05:56:39 PM 33.4714 -112.9169 281° West 352 405 22,500 1,839 Climbing Albuquerque Center
Thu 05:57:41 PM 33.4994 -113.0569 284° West 357 411 24,300 1,548 Climbing Albuquerque Center
Thu 05:58:43 PM 33.5219 -113.1753 283° West 364 419 25,700 1,355 Climbing Albuquerque Center
Thu 05:59:45 PM 33.5456 -113.3011 283° West 381 438 27,100 1,210 Climbing Albuquerque Center
Thu 06:00:47 PM 33.5697 -113.4281 283° West 388 447 28,200 1,161 Climbing Albuquerque Center
Thu 06:01:49 PM 33.5939 -113.5581 283° West 399 459 29,500 1,210 Climbing Albuquerque Center
Thu 06:02:51 PM 33.6192 -113.6925 283° West 402 463 30,700 1,065 Climbing Albuquerque Center
Thu 06:03:53 PM 33.6431 -113.8244 282° West 405 466 31,700 629 Climbing Albuquerque Center
Thu 06:04:55 PM 33.6736 -113.9867 283° West 413 475 32,000 145 Climbing Albuquerque Center
Thu 06:05:57 PM 33.6972 -114.1208 282° West 412 474 32,000  Level Albuquerque Center
Thu 06:06:59 PM 33.7200 -114.2469 282° West 407 468 32,000  Level Albuquerque Center
Thu 06:07:57 PM 33.7461 -114.3883 283° West 397 457 32,000  Level Los Angeles Center
Thu 06:08:59 PM 33.7703 -114.5169 283° West 396 456 32,000  Level Los Angeles Center
Thu 06:10:01 PM 33.7803 -114.6469 275° West 393 452 32,000  Level Los Angeles Center
Thu 06:11:03 PM 33.7872 -114.7761 274° West 391 450 32,000  Level Los Angeles Center
Thu 06:12:05 PM 33.7961 -114.9042 275° West 386 444 32,000  Level Los Angeles Center
Thu 06:13:07 PM 33.8039 -115.0594 273° West 389 448 32,000 -339 Level Los Angeles Center
Thu 06:14:09 PM 33.8094 -115.1883 273° West 389 448 31,300 -968 Descending Los Angeles Center
Thu 06:15:11 PM 33.8186 -115.3272 275° West 414 476 30,000 -1,248 Descending Los Angeles Center
Thu 06:16:14 PM 33.8253 -115.4694 273° West 427 491 28,700 -1,296 Descending Los Angeles Center
Thu 06:17:16 PM 33.8328 -115.6136 274° West 432 497 27,300 -1,258 Descending Los Angeles Center
Thu 06:18:18 PM 33.8406 -115.7544 274° West 426 490 26,100 -1,258 Descending Los Angeles Center
Thu 06:19:20 PM 33.8472 -115.9203 273° West 418 481 24,700 -1,355 Descending Los Angeles Center
Thu 06:20:22 PM 33.8544 -116.0586 274° West 417 480 23,300 -1,403 Descending Los Angeles Center
Thu 06:21:24 PM 33.8611 -116.1956 273° West 414 476 21,800 -1,597 Descending Los Angeles Center
Thu 06:22:26 PM 33.8661 -116.3300 273° West 406 467 20,000 -1,548 Descending Los Angeles Center
Thu 06:23:28 PM 33.8719 -116.4681 273° West 414 476 18,600 -1,258 Descending Los Angeles Center
Thu 06:24:30 PM 33.8792 -116.6203 273° West 386 444 17,400 -1,536 Descending Los Angeles Center
Thu 06:25:33 PM 33.8853 -116.7450 273° West 378 435 15,400 -1,824 Descending Los Angeles Center
Thu 06:26:35 PM 33.8942 -116.8644 275° West 364 419 13,600 -1,694 Descending Los Angeles Center
Thu 06:27:37 PM 33.9311 -116.9775 292° West 367 422 11,900 -1,657 Descending Los Angeles Center
Thu 06:28:20 PM 33.9667 -117.0667 296° West 335 386 10,700 -1,431 Descending Southern California TRACON
Thu 06:29:26 PM 34.0000 -117.1667 292° West 284 327 9,300 -1,429 Descending Southern California TRACON
Thu 06:30:26 PM 34.0167 -117.2500 284° West 284 327 7,700 -1,850 Descending Southern California TRACON
Thu 06:31:26 PM 34.0500 -117.3500 292° West 270 311 5,600 -2,231 Descending Southern California TRACON
Thu 06:32:27 PM 34.0500 -117.4333 270° West 266 306 3,200 -1,736 Descending Southern California TRACON
Thu 06:33:27 PM 34.0500 -117.5167 270° West 197 227 2,100 -900 Descending Southern California TRACON
Thu 06:34:27 PM 34.0500 -117.5667 270° West 159 183 1,400 -700 Descending Southern California TRACON

Login

Don't have an account? Register now (free) for customized features, flight alerts, and more!